"Pseudo-MPEC" for P21D8tV

Created 2023 Feb 7 14:22:07 UT using Find_Orb

Click here for an explanation of pseudo-MPECs

 
 Astrometry: 
     P21D8tV* C2023 01 22iDsNnVRAstrometry?cRo)S7m',nJlWvw]*NVk=NZ;GccX;(v$4EF52
     P21D8tV  C2023 01 22ah7Toredacted;wH?Cp@=THsy?G4[IwD'8'Wp;V1)mfyD4rgnhaeF52
     P21D8tV  C2023 01 22v0^v)`0d/-cjyjGI+WclickZ5KFhI5`k])RI%a!FGed0LMT%qUN#F52
     P21D8tV  C2023 01 223/l^/4axtR\#+_]!F8GH$22*9g01B^4UGZmWnUUBa7lP]nwuoES[F52
     P21D8tV  C2023 01 22W^uDn,A,tvT.j1y@D`2D-b[U_1J*d,':Jg[WaX1ovK!I;NHHhereF52
     P21D8tV  C2023 01 227)#v:([Y4forQ[ok,6explanation'cQ9N;JKpfN1ov4,7\ts=-aF52

Station data:
(F52) Pan-STARRS 2, Haleakala  (N20.707382 W156.255910)  US/Hawaii.
   Observers J. Bulger, T. Dukes, T. Lowe, A. Schultz, M. Willman. Measurers
   K. Chambers, S. Chastel, T. de Boer, L. Denneau, J. Fairlamb, H.
   Flewelling, M. Huber, C.-C. Lin, E. Magnier, Y. Ramanjooloo, R. Wainscoat,
   R. Weryk. 1.8-m Ritchey-Chrétien + CCD.

Orbital elements:  P21D8tV
   Perihelion 2023 Dec 12.59523 +/- 235 TT = 14:17:08 (JD 2460291.09523)
Epoch 2023 Jan 22.0 TT = JDT 2459966.5   Earth MOID: 0.6095      AutoNEOCP
M 233.46073558 +/- 80               (J2000 ecliptic)
n   0.38983710 +/- 0.219            Peri.  157.97109 +/- 90
a   1.85586879 +/- 0.695            Node   103.72773 +/- 22
e   0.1287747 +/- 0.274             Incl.   22.24531 +/- 28
P   2.53/923.45d           H 20.38  G  0.15   U 11.7  SR
q 1.61687983 +/- 0.784    Q 2.09485776 +/- 36.9
From 6 observations 2023 Jan. 22 (4.9 hr); mean residual 0".09
Residuals in arcseconds: 
230122 F52  .08+  .10+    230122 F52  .16-  .05-    230122 F52  .09-  .12+    
230122 F52  .05+  .00     230122 F52  .02+  .07-    230122 F52  .11+  .10-    

Ephemerides (geocentric):
Date (UTC) HH   RA             Dec           delta  r     elong  mag " sig PA
---- --------  ------------   ------------  ------ ------ -----  --- --------
2023 02 07 14  08 20 33.759   +38 15 55.88  1.0654 1.9965 153.3 22.8 3920  42
2023 02 07 15  08 20 30.248   +38 16 30.42  1.0656 1.9964 153.3 22.8 3942  42
2023 02 07 16  08 20 26.739   +38 17 04.91  1.0657 1.9964 153.3 22.8 3964  42
2023 02 07 17  08 20 23.231   +38 17 39.35  1.0658 1.9963 153.2 22.8 3986  42
2023 02 07 18  08 20 19.726   +38 18 13.74  1.0660 1.9963 153.2 22.8 4008  42
2023 02 07 19  08 20 16.223   +38 18 48.09  1.0661 1.9962 153.1 22.8 4030  42
2023 02 07 20  08 20 12.721   +38 19 22.39  1.0662 1.9962 153.1 22.8 4052  42
2023 02 07 21  08 20 09.221   +38 19 56.64  1.0664 1.9961 153.0 22.8 4074  42
2023 02 07 22  08 20 05.723   +38 20 30.84  1.0665 1.9961 153.0 22.8 4097  42
2023 02 07 23  08 20 02.228   +38 21 05.00  1.0666 1.9960 152.9 22.8 4119  42
2023 02 08 00  08 19 58.734   +38 21 39.10  1.0668 1.9960 152.9 22.8 4142  42
2023 02 08 01  08 19 55.242   +38 22 13.16  1.0669 1.9959 152.8 22.8 4165  42
2023 02 08 02  08 19 51.752   +38 22 47.17  1.0670 1.9959 152.8 22.8 4187  42
2023 02 08 03  08 19 48.264   +38 23 21.14  1.0672 1.9958 152.8 22.8 4210  42
2023 02 08 04  08 19 44.778   +38 23 55.05  1.0673 1.9958 152.7 22.8 4233  42
2023 02 08 05  08 19 41.295   +38 24 28.92  1.0674 1.9957 152.7 22.8 4256  42
2023 02 08 06  08 19 37.813   +38 25 02.74  1.0676 1.9957 152.6 22.8 4279  42
2023 02 08 07  08 19 34.333   +38 25 36.51  1.0677 1.9956 152.6 22.8 4302  42
2023 02 08 08  08 19 30.855   +38 26 10.23  1.0678 1.9956 152.5 22.8 4326  42
2023 02 08 09  08 19 27.380   +38 26 43.90  1.0680 1.9955 152.5 22.8 4349  42
2023 02 08 10  08 19 23.906   +38 27 17.53  1.0681 1.9955 152.4 22.8 4373  42
2023 02 08 11  08 19 20.434   +38 27 51.10  1.0683 1.9954 152.4 22.8 4396  42
2023 02 08 12  08 19 16.965   +38 28 24.63  1.0684 1.9954 152.4 22.8 4420  42
2023 02 08 13  08 19 13.498   +38 28 58.11  1.0685 1.9953 152.3 22.8 4443  42
2023 02 08 14  08 19 10.032   +38 29 31.55  1.0687 1.9953 152.3 22.8 4467  42
2023 02 08 15  08 19 06.569   +38 30 04.93  1.0688 1.9952 152.2 22.8 4491  42
2023 02 08 16  08 19 03.108   +38 30 38.27  1.0690 1.9952 152.2 22.8 4515  42
2023 02 08 17  08 18 59.649   +38 31 11.56  1.0691 1.9951 152.1 22.8 4539  42
2023 02 08 18  08 18 56.192   +38 31 44.79  1.0692 1.9951 152.1 22.8 4564  42
2023 02 08 19  08 18 52.738   +38 32 17.99  1.0694 1.9950 152.0 22.8 4588  42
2023 02 08 20  08 18 49.285   +38 32 51.13  1.0695 1.9950 152.0 22.8 4612  42
2023 02 08 21  08 18 45.835   +38 33 24.22  1.0697 1.9949 151.9 22.9 4637  42
2023 02 08 22  08 18 42.387   +38 33 57.27  1.0698 1.9949 151.9 22.9 4661  42
2023 02 08 23  08 18 38.941   +38 34 30.27  1.0700 1.9948 151.9 22.9 4686  42
2023 02 09 00  08 18 35.498   +38 35 03.22  1.0701 1.9947 151.8 22.9 4711  42
2023 02 09 01  08 18 32.056   +38 35 36.12  1.0702 1.9947 151.8 22.9 4736  42
2023 02 09 02  08 18 28.617   +38 36 08.97  1.0704 1.9946 151.7 22.9 4761  41
2023 02 09 03  08 18 25.180   +38 36 41.77  1.0705 1.9946 151.7 22.9 4786  41
2023 02 09 04  08 18 21.745   +38 37 14.53  1.0707 1.9945 151.6 22.9 4811  41
2023 02 09 05  08 18 18.313   +38 37 47.24  1.0708 1.9945 151.6 22.9 4836  41
2023 02 09 06  08 18 14.883   +38 38 19.89  1.0710 1.9944 151.5 22.9 4861  41
2023 02 09 07  08 18 11.455   +38 38 52.50  1.0711 1.9944 151.5 22.9 4887  41
2023 02 09 08  08 18 08.029   +38 39 25.07  1.0713 1.9943 151.4 22.9 4912  41
2023 02 09 09  08 18 04.606   +38 39 57.58  1.0714 1.9943 151.4 22.9 4938  41
2023 02 09 10  08 18 01.185   +38 40 30.04  1.0716 1.9942 151.4 22.9 4964  41
2023 02 09 11  08 17 57.766   +38 41 02.46  1.0717 1.9942 151.3 22.9 4990  41
2023 02 09 12  08 17 54.350   +38 41 34.83  1.0719 1.9941 151.3 22.9 5016  41
2023 02 09 13  08 17 50.936   +38 42 07.14  1.0720 1.9941 151.2 22.9 5042  41